Location: Asheville, NC
(35.6000°N, 82.5500°W)
Time: 03:49:14
(UTC-05:00)

Tiangong 2 - Pass Details

Date: 07 December 2017
Orbit: 384 x 390 km, 42.8° (Epoch: 20 January)

Event Time Altitude Azimuth Distance (km) Brightness Sun altitude
Exits shadow 06:56:13 - 297° (WNW) 1,543 3.4 -6.4°
Reaches altitude 10° 06:56:33 10° 298° (WNW) 1,412 3.2 -6.4°
Maximum altitude 06:59:44 84° 25° (NNE) 392 1.1 -5.8°
Drops below altitude 10° 07:02:55 10° 115° (ESE) 1,411 5.9 -5.2°
Sets 07:04:59 0° 116° (ESE) 2,264 8.1 -4.8°
